TimeEDT,TemperatureF,Dew PointF,Humidity,Sea Level PressureIn,VisibilityMPH,Wind Direction,Wind SpeedMPH,Gust SpeedMPH,PrecipitationIn,Events,Conditions,WindDirDegrees,DateUTC
12:53 AM,71.1,70.0,96,30.06,6.0,Calm,Calm,-,0.00,,Partly Cloudy,0,2013-10-03 04:53:00
1:53 AM,71.1,69.1,93,30.05,7.0,SSW,4.6,-,N/A,,Overcast,200,2013-10-03 05:53:00
2:53 AM,71.1,69.1,93,30.06,7.0,Calm,Calm,-,0.04,,Overcast,0,2013-10-03 06:53:00
3:53 AM,70.0,69.1,97,30.05,6.0,Calm,Calm,-,N/A,,Mostly Cloudy,0,2013-10-03 07:53:00
4:12 AM,69.8,69.8,100,30.07,6.0,SE,3.5,-,N/A,,Overcast,140,2013-10-03 08:12:00
4:44 AM,69.8,69.8,100,30.07,7.0,Calm,Calm,-,N/A,,Overcast,0,2013-10-03 08:44:00
4:53 AM,70.0,69.1,97,30.06,7.0,Calm,Calm,-,N/A,,Overcast,0,2013-10-03 08:53:00
5:24 AM,69.8,69.8,100,30.07,7.0,Calm,Calm,-,N/A,,Overcast,0,2013-10-03 09:24:00
5:53 AM,70.0,69.1,97,30.06,6.0,SE,3.5,-,N/A,,Overcast,140,2013-10-03 09:53:00
6:53 AM,70.0,68.0,93,30.07,7.0,Calm,Calm,-,0.00,,Mostly Cloudy,0,2013-10-03 10:53:00
7:53 AM,70.0,68.0,93,30.08,7.0,Calm,Calm,-,N/A,,Overcast,0,2013-10-03 11:53:00
8:53 AM,70.0,68.0,93,30.09,6.0,Calm,Calm,-,N/A,,Overcast,0,2013-10-03 12:53:00
9:53 AM,71.1,69.1,93,30.10,7.0,South,3.5,-,N/A,,Mostly Cloudy,180,2013-10-03 13:53:00
10:53 AM,73.0,69.1,87,30.11,8.0,SW,4.6,-,N/A,,Mostly Cloudy,220,2013-10-03 14:53:00
11:53 AM,77.0,66.9,71,30.09,10.0,West,6.9,-,N/A,,Scattered Clouds,280,2013-10-03 15:53:00
12:53 PM,77.0,66.0,69,30.08,10.0,SSE,3.5,-,N/A,,Mostly Cloudy,160,2013-10-03 16:53:00
1:53 PM,79.0,66.0,64,30.06,10.0,SSW,5.8,-,N/A,,Scattered Clouds,200,2013-10-03 17:53:00
2:53 PM,81.0,66.9,62,30.04,10.0,South,5.8,-,N/A,,Scattered Clouds,180,2013-10-03 18:53:00
3:53 PM,81.0,63.0,54,30.02,10.0,SW,5.8,-,N/A,,Scattered Clouds,230,2013-10-03 19:53:00
4:53 PM,81.0,66.9,62,30.00,10.0,SE,6.9,-,N/A,,Clear,140,2013-10-03 20:53:00
5:53 PM,80.1,64.9,60,30.01,10.0,SE,5.8,-,N/A,,Scattered Clouds,130,2013-10-03 21:53:00
6:53 PM,79.0,66.0,64,30.00,10.0,SSE,4.6,-,N/A,,Partly Cloudy,150,2013-10-03 22:53:00
7:53 PM,77.0,66.9,71,30.02,10.0,SE,3.5,-,N/A,,Clear,140,2013-10-03 23:53:00
8:53 PM,75.0,68.0,79,30.02,10.0,Calm,Calm,-,N/A,,Clear,0,2013-10-04 00:53:00
9:53 PM,73.9,68.0,82,30.04,10.0,Calm,Calm,-,N/A,,Clear,0,2013-10-04 01:53:00
10:53 PM,73.0,66.9,81,30.04,10.0,Calm,Calm,-,N/A,,Clear,0,2013-10-04 02:53:00